Location: ActonStarParty
(42.4766°N, 71.4538°W)
Time: 02:41:28
(UTC-04:00)

ISS - Visible Passes

Search period start: 28 July 2017 00:00
Search period end: 07 August 2017 00:00
Orbit: 400 x 408 km, 51.6° (Epoch: 28 July)

Date Brightness Start Highest point End Pass type
(mag) Time Alt. Az. Time Alt. Az. Time Alt. Az.
28 Jul -0.5 00:57:14 10° NW 00:57:24 11° NW 00:57:24 11° NW visible
28 Jul -2.1 20:50:05 10° W 20:53:07 36° NNW 20:56:10 10° NE visible
28 Jul -0.9 22:28:04 10° NW 22:30:16 17° N 22:32:29 10° NE visible
29 Jul -1.0 00:05:01 10° NW 00:06:37 18° N 00:06:37 18° N visible
29 Jul -1.0 21:35:19 10° WNW 21:37:42 19° NNW 21:40:07 10° NE visible
29 Jul -1.2 23:12:44 10° NW 23:15:04 18° N 23:15:52 16° NNE visible
30 Jul -1.4 20:42:29 10° WNW 20:45:10 23° NNW 20:47:51 10° NE visible
30 Jul -1.0 22:20:19 10° NW 22:22:28 16° N 22:24:38 10° NE visible
30 Jul -0.9 23:56:43 10° NW 23:57:45 17° NNW 23:57:45 17° NNW visible
31 Jul -1.0 21:27:42 10° NW 21:29:52 16° N 21:32:02 10° NE visible
31 Jul -1.6 23:04:29 10° NW 23:07:04 23° NNE 23:07:04 23° NNE visible
01 Aug -1.1 20:34:56 10° NW 20:37:15 18° N 20:39:35 10° NE visible
01 Aug -1.3 22:12:12 10° NW 22:14:35 19° N 22:16:23 13° NE visible
01 Aug -0.8 23:48:21 10° NW 23:49:00 15° NW 23:49:00 15° NW visible
02 Aug -1.2 21:19:47 10° NW 21:21:59 17° N 21:24:11 10° NE visible
02 Aug -2.0 22:56:05 10° NW 22:58:20 30° N 22:58:20 30° N visible
03 Aug -2.0 22:03:50 10° NW 22:06:37 25° NNE 22:07:41 21° NE visible
03 Aug -0.6 23:40:05 10° WNW 23:40:18 12° WNW 23:40:18 12° WNW visible
04 Aug -1.6 21:11:32 10° NW 21:14:01 20° NNE 21:16:31 10° ENE visible
04 Aug -2.2 22:47:41 10° NW 22:49:40 34° NW 22:49:40 34° NW visible
05 Aug -3.0 21:55:21 10° NW 21:58:29 41° NNE 21:59:04 37° ENE visible
06 Aug -2.2 21:03:03 10° NW 21:05:56 28° NNE 21:08:28 12° E visible
06 Aug -1.9 22:39:22 10° WNW 22:41:06 27° W 22:41:06 27° W visible
